Regional Weather Roundup
Issued by NWS Charleston, SC

Current Version | Previous Version | Graphics & Text | Print | Product List | Glossary On
Versions: 1 2 3 4 5 6 7 8 9 10 11 12 13 14 15 16 17 18 19 20 21 22 23 24 25 26 27 28 29 30 31 32 33 34 35 36 37 38 39 40 41 42 43 44 45 46 47 48 49 50
000 ASUS42 KCHS 292311 RWRCHS REGIONAL WEATHER ROUNDUP NATIONAL WEATHER SERVICE CHARLESTON SC 600 PM EST THU JAN 29 2015 NOTE: "FAIR" INDICATES FEW OR NO CLOUDS BELOW 12,000 FEET WITH NO SIGNIFICANT WEATHER AND/OR OBSTRUCTIONS TO VISIBILITY. NOT ALL STATIONS ARE QUALITY CONTROLLED BY THE NATIONAL WEATHER SERVICE. USE DATA WITH CAUTION...ESPECIALLY DEWPOINT OBSERVATIONS. SCZ027-030-031-034>040-042>050-300000- ...SOUTHEAST SOUTH CAROLINA... CITY SKY/WX TMP DP RH WIND PRES REMARKS N CHARLESTON MOCLDY 49 38 65 S6 30.20F WATERFRONT PRK N/A 50 N/A N/A S7 N/A MOUNT PLEASANT FAIR 48 39 71 CALM 30.21F PINOPOLIS N/A 55 36 47 VRB2 30.12S MONCKS CORNER FAIR 52 37 58 S5 30.18F SUMMERVILLE FAIR 52 39 62 CALM 30.20F BEAUFORT MCAS CLOUDY 52 43 71 S7 30.20F BEAUFORT ARPT FAIR 50 43 76 CALM 30.20F HILTON HEAD IS MOCLDY 50 43 76 CALM 30.22F WALTERBORO CLOUDY 54 36 50 S7 30.19F ALLENDALE FAIR 55 36 47 CALM 30.17F ...SOUTHERN MIDLANDS AND PEE DEE... CITY SKY/WX TMP DP RH WIND PRES REMARKS GEORGETOWN NOT AVBL KINGSTREE NOT AVBL ORANGEBURG CLOUDY 52 28 39 S7 30.15F BARNWELL FAIR 55 34 44 S3 30.17F AIKEN FAIR 52 28 40 S6 30.18S MANNING FAIR 50 -8 9 S5 30.16F COLUMBIA MOCLDY 53 24 32 S8 30.14F SUMTER MOCLDY 50 29 44 S7 30.14F FLORENCE MOCLDY 50 25 37 S6 30.15F MYRTLE BEACH CLEAR 48 34 57 S12 30.23F N MYRTLE BEACH CLEAR 47 35 63 S7 30.20F $$ GAZ063-065-086>088-099>101-113>116-118-119-134>141-150-300000- ...SOUTHEAST GEORGIA... CITY SKY/WX TMP DP RH WIND PRES REMARKS SAVANNAH ARPT CLOUDY 55 41 59 S9 30.21F HUNTER AAF MOCLDY 53 43 70 S7 30.19F FORT STEWART MOCLDY 59 40 50 CALM 30.19F STATESBORO MOCLDY 56 36 47 S5 30.18F SYLVANIA MOCLDY 55 37 50 CALM 30.19F CLAXTON FAIR 55 39 54 S3 30.20F ...CSRA...CENTRAL AND FAR SOUTHEAST GEORGIA... CITY SKY/WX TMP DP RH WIND PRES REMARKS THOMSON MOCLDY 56 31 39 CALM 30.18F AUGUSTA-BUSH LGT RAIN 54 26 34 S8 30.15F AUGUSTA-DANIEL CLOUDY 56 26 31 S9 30.15F SWAINSBORO FAIR 59 9 13 S3 30.18F VIDALIA PTCLDY 57 36 44 SW5 30.19F EASTMAN FAIR 56 32 39 S3 30.20F HAZLEHURST FAIR 58 36 43 SW3 30.19F ALMA CLEAR 58 37 45 S3 30.21S WAYCROSS PTCLDY 62 42 47 SW5 30.21F JESUP FAIR 61 45 55 CALM 30.21F BAXLEY FAIR 59 41 51 S3 30.20F BRUNSWICK PTCLDY 55 45 67 SE3 30.23S SAINT SIMONS MOCLDY 53 46 77 SE6 30.23S $$ SCZ027-028-034-036>038-045-046-048>050-GAZ119-141-300000- ...LAKE AND SUPPLEMENTAL COASTAL OBSERVATIONS... STATION/POSITION TIME TEMP WIND PRES WAVE SWELL AIR SEA DIR/SP/G HT/PER HT/PER/DIR (UTC) (F) (DEG/KT/KT) (MB) (FT/S) (FT/S/D) UPR LAKE MARION NOT AVBL WINYAH BAY 2145 53 190/ 8 1022.0 LAKE MURRAY 2200 53 200/ 10/ 12 1020.3F ACE BASIN NERRS NOT AVBL FORT PULASKI 2200 52 52 110/ 3/ 4 1024.1F SAPELO ISLAND 2200 55 120/ 4 1023.0F $$ ANZ835-935-AMZ111-154-330-350-352-354-370-450-454-472-300000- ...C-MAN AND BUOY OBSERVATIONS... STATION/POSITION TIME TEMP WIND PRES WAVE SWELL AIR SEA DIR/SP/G HT/PER HT/PER/DIR (UTC) (F) (DEG/KT/KT) (MB) (FT/S) (FT/S/D) BUOY 41004 2250 58 68 190/ 10/ 14 1022.8F 3/10 3/10 BUOY 41008 2250 53 54 100/ 4/ 6 1023.5F 3/11 2/ 80/11 FOLLY BEACH CMAN 2200 50 160/ 2/ 2 1023.9F CAPERS NEARSHORE 2200 51 CALM / 2 N/A FRIPP NEARSHORE 2200 51 110/ 4/ 4 1023.1F STATION/POSITION TIME TEMP WIND PRES WAVE SWELL AIR SEA DIR/SP/G HT/PER HT/PER/DIR (UTC) (F) (DEG/KT/KT) (MB) (FT/S) (FT/S/D) 5E ST. MARYS GA 2251 57 N/A 3/12 2/ 80/12 FRYING PAN BUOY 2250 55 67 210/ 12/ 17 1023.8F 3/ 9 2/ 80/ 9 BUOY 41025 2250 44 70 280/ 8/ 10 1023.9R 5/ 8 5/ 60/ 8 CAPE LOOKOUT NC 2200 43 230/ 3/ 4 1023.8F BUOY 41002 2250 57 72 350/ 4/ 6 1024.8R 6/ 8 7/ 20/ 8 BUOY 41010 2220 65 75 120/ 4/ 8 1024.3R ST AUGUSTINE FL 2300 58 10/ 4/ 5 1024.7R $$

USA.gov is the U.S. government's official web portal to all federal, state and local government web resources and services.